Location: Αθήνα
(37.9839°N, 23.7283°E)
Time: 20:27:16
(UTC+03:00)

ISS - Pass Details

Date: 25 June 2024
Orbit: 410 x 424 km, 51.6° (Epoch: 12 July)

Event Time Altitude Azimuth Distance (km) Brightness Sun altitude
Exits shadow 04:46:48 17° 267° (W) 1,149 -2.0 -12.9°
Maximum altitude 04:48:58 35° 327° (NNW) 687 -2.6 -12.6°
Drops below altitude 10° 04:52:05 10° 35° (NE) 1,494 0.5 -12.1°
Sets 04:54:18 0° 45° (NE) 2,363 2.2 -11.8°
